Voltar ao catálogo

COSMOS 1932 DEB

AtivoLEO
NORAD 28275·DEBRIS·🇷🇺 Russia

Lançado Mar 14, 1988 de Baikonur Cosmodrome

Loading…

Próximas Passagens (próximas 24 horas)

TLE

ObsoletoSource: Space-Track

Época: Aug 27, 2026, 15:47 UTC

1 28275U 88019F   26239.65784900  .00000083  00000-0  15526-3 0  9994
2 28275  65.0426 246.1200 0052140 218.1725 253.4979 13.82844544653491

Acompanhe COSMOS 1932 DEB em tempo real com AllMySat

Download on the App Store